Airfield :
LOGIN :

Register | Disclaimer

   EN    FR    IT 

 










Legend :    VFR   Marginal VFR   IFR   Intensive IFR   Very Intensive IFR
Visi :
Ceiling :
>= 8 km
>= 3000ft
5 to 8 km
1000 to 3000 ft
1500m to 5 km
500 to 1000 ft
800 to 1500m
200 to 500 ft
< 800m
< 200 ft
Symbols :   Thunderstorms  Fog  Heavy snow  Heavy precipitations  Wind > 20 kt
SIGMETs :     Misc.  Thunderstorms  Icing  Turbulence  Mountain Waves  Volcanic Ashes






- Airport Elevation : 123 ft
- IATA code : BLQ


LIPE - Bologna Guglielmo Marconi

CURRENT METAR :
  • 050650Z 30002KT 9999 BKN065 08/03 Q1016

EXPIRED METARs :
  • 050620Z 24001KT 9999 SCT063 SCT073 07/02 Q1016
  • 050550Z 24003KT 9999 BKN055 07/02 Q1016
  • 050520Z 23002KT 9999 SCT050 07/02 Q1016
  • 050450Z 28004KT 9999 SCT050 07/02 Q1016
  • 050420Z 30004KT CAVOK 08/02 Q1016

TAF TAF LIPE
Valid from the 05 at 06:00 until the 06 at 06:00 UTC


050500Z 0506/0606 VRB05KT 8000 SCT050
TEMPO 0522/0606 4000 SHRA BKN010
BECMG 0600/0602 10012KT



MET'MAP, your aeronautical weather chart ! - Copyright ORBIFLY December 2007 - Disclaimer

ORBIFLY MET'MAP TEAM :

Programming & Development : Alexandra Zaïnal
Concept & original design : Baudouin d'Aumeries
Assistance for programming : Marc-Olivier Méhu
Technical & hardware support : Manuel Goepfert

Contact : metmap@orbifly.com




SOURCES & CREDITS :

   NOAA